TimeMST,TemperatureF,Dew PointF,Humidity,Sea Level PressureIn,VisibilityMPH,Wind Direction,Wind SpeedMPH,Gust SpeedMPH,PrecipitationIn,Events,Conditions,WindDirDegrees,DateUTC
12:52 AM,30.9,23.0,72,29.98,10.0,Calm,Calm,-,N/A,,Clear,0,2012-12-18 07:52:00
1:52 AM,30.0,24.1,79,29.97,10.0,NNW,3.5,-,N/A,,Clear,330,2012-12-18 08:52:00
2:52 AM,30.0,24.1,79,29.96,10.0,NW,3.5,-,N/A,,Clear,320,2012-12-18 09:52:00
3:52 AM,30.9,24.1,76,29.94,10.0,North,4.6,-,N/A,,Clear,360,2012-12-18 10:52:00
4:52 AM,28.9,23.0,78,29.95,10.0,North,4.6,-,N/A,,Clear,350,2012-12-18 11:52:00
5:52 AM,28.0,23.0,81,29.96,10.0,Calm,Calm,-,N/A,,Clear,0,2012-12-18 12:52:00
6:52 AM,24.1,21.0,88,30.00,10.0,West,3.5,-,N/A,,Partly Cloudy,270,2012-12-18 13:52:00
7:52 AM,27.0,21.9,81,30.02,10.0,North,4.6,-,N/A,,Partly Cloudy,10,2012-12-18 14:52:00
8:52 AM,30.9,24.1,76,30.02,10.0,NW,3.5,-,N/A,,Mostly Cloudy,310,2012-12-18 15:52:00
9:52 AM,33.1,24.1,70,30.02,10.0,Calm,Calm,-,N/A,,Mostly Cloudy,0,2012-12-18 16:52:00
10:52 AM,37.0,25.0,62,29.99,10.0,North,4.6,-,N/A,,Scattered Clouds,10,2012-12-18 17:52:00
11:52 AM,39.9,26.1,58,29.94,10.0,North,4.6,-,N/A,,Mostly Cloudy,360,2012-12-18 18:52:00
12:52 PM,43.0,26.1,51,29.89,10.0,Calm,Calm,-,N/A,,Scattered Clouds,0,2012-12-18 19:52:00
1:52 PM,44.1,26.1,49,29.86,10.0,Calm,Calm,-,N/A,,Mostly Cloudy,0,2012-12-18 20:52:00
2:52 PM,45.0,25.0,46,29.81,10.0,East,3.5,-,N/A,,Mostly Cloudy,100,2012-12-18 21:52:00
3:52 PM,44.1,26.1,49,29.79,10.0,South,3.5,-,N/A,,Mostly Cloudy,180,2012-12-18 22:52:00
4:52 PM,43.0,27.0,53,29.78,10.0,SSW,5.8,-,N/A,,Mostly Cloudy,200,2012-12-18 23:52:00
5:52 PM,42.1,26.1,53,29.79,10.0,WNW,3.5,-,N/A,,Mostly Cloudy,290,2012-12-19 00:52:00
6:52 PM,42.1,26.1,53,29.82,10.0,North,3.5,-,N/A,,Overcast,10,2012-12-19 01:52:00
7:52 PM,39.0,28.0,65,29.79,10.0,ESE,5.8,-,N/A,,Overcast,120,2012-12-19 02:52:00
8:52 PM,37.0,28.0,70,29.77,10.0,ESE,6.9,-,N/A,,Overcast,120,2012-12-19 03:52:00
9:52 PM,37.9,27.0,65,29.74,10.0,ESE,4.6,-,N/A,,Overcast,120,2012-12-19 04:52:00
10:52 PM,37.0,28.0,70,29.73,10.0,Calm,Calm,-,N/A,,Mostly Cloudy,0,2012-12-19 05:52:00
11:52 PM,37.0,28.0,70,29.67,10.0,SE,5.8,-,N/A,,Overcast,130,2012-12-19 06:52:00